This is the latest recevied weather packets stored in our database for station/object DM4WH-13. If no packets are shown the sender has not sent any weather packets the latest 10 day(s).
| Time | Temp. | Humidity | Pressure | Rain* | Wind** | Luminosity | Snow |
|---|---|---|---|---|---|---|---|
| 1777475421 | 12.22° C | 26% | 1030 hPa | 0 mm | 1.34 m/s, 36° | - | - |
| 1777475109 | 12.22° C | 26% | 1030 hPa | 0 mm | 0.45 m/s, 56° | - | - |
| 1777474821 | 12.22° C | 27% | 1030.1 hPa | 0 mm | 0.89 m/s, 12° | - | - |
| 1777474508 | 12.22° C | 26% | 1030.1 hPa | 0 mm | 0.89 m/s, 286° | - | - |
| 1777474221 | 12.22° C | 27% | 1030.1 hPa | 0 mm | 0.45 m/s, 44° | - | - |
| 1777473909 | 12.22° C | 28% | 1030 hPa | 0 mm | 0.45 m/s, 29° | - | - |
| 1777473634 | 12.22° C | 28% | 1030 hPa | 0 mm | 0.89 m/s, 36° | - | - |
| 1777473321 | 12.22° C | 28% | 1030 hPa | 0 mm | 0.89 m/s, 44° | - | - |
| 1777473009 | 12.22° C | 27% | 1030.1 hPa | 0 mm | 0.89 m/s, 10° | - | - |
| 1777472721 | 12.22° C | 27% | 1030.1 hPa | 0 mm | 0.45 m/s, 300° | - | - |
| 1777472409 | 12.78° C | 28% | 1030.1 hPa | 0 mm | 0.45 m/s, 18° | - | - |
| 1777472121 | 12.78° C | 27% | 1030.1 hPa | 0 mm | 0.45 m/s, 62° | - | - |
| 1777471808 | 12.78° C | 29% | 1030.1 hPa | 0 mm | 0.45 m/s, 271° | - | - |
| 1777471521 | 12.22° C | 29% | 1030.1 hPa | 0 mm | 0.45 m/s, 54° | - | - |
| 1777471208 | 12.22° C | 27% | 1030.3 hPa | 0 mm | 0.89 m/s, 354° | - | - |
| 1777470921 | 12.22° C | 26% | 1030.2 hPa | 0 mm | 0.89 m/s, 25° | - | - |
| 1777470608 | 12.78° C | 28% | 1030.2 hPa | 0 mm | 0.89 m/s, 325° | - | - |
| 1777470321 | 12.22° C | 27% | 1030.2 hPa | 0 mm | 0.89 m/s, 29° | - | - |
| 1777470008 | 12.22° C | 26% | 1030.1 hPa | 0 mm | 0.45 m/s, 31° | - | - |
| 1777469721 | 12.22° C | 26% | 1030 hPa | 0 mm | 0.45 m/s, 28° | - | - |
| 1777469408 | 12.22° C | 27% | 1030.1 hPa | 0 mm | 0.89 m/s, 30° | - | - |
| 1777469121 | 12.22° C | 26% | 1030.1 hPa | 0 mm | 0.89 m/s, 72° | - | - |
| 1777468808 | 12.22° C | 26% | 1030.1 hPa | 0 mm | 1.79 m/s, 323° | - | - |
| 1777468521 | 12.22° C | 27% | 1030.1 hPa | 0 mm | 0.89 m/s, 46° | - | - |
| 1777468208 | 12.22° C | 26% | 1030.1 hPa | 0 mm | 0.89 m/s, 19° | - | - |
* Rain latest hour (hover to see other rain measurements)
** Current wind speed in m/s (hover to see current wind gust speed)